Weather History for Mumbai, India

Change the Weather History Date:

Sunday, February 9, 2014

  Actual Average Record
Temperature  
Mean Temperature 73 °F -  
Max Temperature 82 °F 88 °F 96 °F (1998)
Min Temperature 64 °F 69 °F 55 °F (2002)
Cooling Degree Days 8    
Growing Degree Days 23 (Base 50)    
Moisture  
Dew Point 57 °F    
Average Humidity 58    
Maximum Humidity 88    
Minimum Humidity 23    
Precipitation  
Precipitation 0.00 in - - ()
Sea Level Pressure  
Sea Level Pressure 29.84 in    
Wind  
Wind Speed 6 mph ()    
Max Wind Speed 15 mph    
Max Gust Speed 21 mph    
Visibility 2.0 miles    
Events      
Averages and records for this station are not official NWS values.
T = Trace of Precipitation, MM = Missing Value Source: Averaged Metar Reports

Daily Weather History Graph

Daily Weather History Graph

Search for Another Location

Airport:

Trip Planner

Search our weather history database for the weather conditions in past years. The results will help you decide how hot, cold, wet, or windy it might be!

Date:

Astronomy

Feb. 09, 2014 Rise Set
Actual Time 7:10 AM IST 6:35 PM IST
Civil Twilight 6:47 AM IST 6:58 PM IST
Nautical Twilight 6:21 AM IST 7:24 PM IST
Astronomical Twilight 5:55 AM IST 7:50 PM IST
Moon 2:07 PM IST (2/9) 2:39 AM IST (2/9)
Length of Visible Light 12h 10m
Length of Day
11h 25m
Waxing Gibbous, 73% of the Moon is Illuminated
Feb 9
Waxing Gibbous
Feb 15
Full
Feb 22
Last Quarter
Mar 1
New
Mar 8
First Quarter

Hourly Weather History & Observations

Time (IST) Temp. Heat Index Dew Point Humidity Pressure Visibility Wind Dir Wind Speed Gust Speed Precip Events Conditions
12:10 AM 71.6 °F - 62.6 °F 73% 29.86 in 1.9 mi North 4.6 mph - N/A   Haze
12:40 AM 71.6 °F - 62.6 °F 73% 29.86 in 1.9 mi NE 4.6 mph - N/A   Haze
1:10 AM 71.6 °F - 62.6 °F 73% 29.86 in 1.9 mi NE 3.5 mph - N/A   Haze
1:40 AM 71.6 °F - 62.6 °F 73% 29.83 in 1.9 mi NNE 4.6 mph - N/A   Haze
2:10 AM 71.6 °F - 62.6 °F 73% 29.83 in 1.9 mi NNE 4.6 mph - N/A   Haze
2:30 AM 67 °F - 63 °F 81% 29.84 in 1 mi Calm Calm - -   Haze
2:40 AM 69.8 °F - 62.6 °F 78% 29.83 in 1.9 mi North 5.8 mph - N/A   Haze
3:10 AM 71.6 °F - 64.4 °F 78% 29.83 in 1.9 mi North 5.8 mph - N/A   Haze
3:40 AM 71.6 °F - 64.4 °F 78% 29.80 in 1.9 mi North 5.8 mph - N/A   Haze
4:10 AM 69.8 °F - 64.4 °F 83% 29.80 in 1.9 mi North 5.8 mph - N/A   Haze
4:40 AM 69.8 °F - 64.4 °F 83% 29.83 in 1.9 mi North 5.8 mph - N/A   Haze
5:10 AM 69.8 °F - 64.4 °F 83% 29.83 in 1.9 mi NNE 5.8 mph - N/A   Haze
5:30 AM 66 °F - 63 °F 88% 29.83 in 1 mi Calm Calm - -   Haze
5:40 AM 69.8 °F - 62.6 °F 78% 29.83 in 1.9 mi East 4.6 mph - N/A   Haze
6:10 AM 68.0 °F - 62.6 °F 83% 29.83 in 1.9 mi ENE 4.6 mph - N/A   Haze
6:40 AM 68.0 °F - 62.6 °F 83% 29.83 in 1.9 mi East 5.8 mph - N/A   Haze
7:10 AM 68.0 °F - 62.6 °F 83% 29.83 in 1.6 mi ENE 4.6 mph - N/A   Haze
7:40 AM 68.0 °F - 60.8 °F 78% 29.86 in 1.6 mi NE 6.9 mph - N/A   Haze
8:10 AM 68.0 °F - 60.8 °F 78% 29.86 in 1.6 mi NE 5.8 mph - N/A   Haze
8:30 AM 67 °F - 62 °F 77% 29.88 in 1 mi Calm Calm - -   Haze
8:40 AM 69.8 °F - 60.8 °F 73% 29.89 in 1.6 mi NE 6.9 mph - N/A   Haze
9:10 AM 71.6 °F - 60.8 °F 69% 29.89 in 1.6 mi NE 5.8 mph - N/A   Haze
10:40 AM 77.0 °F - 55.4 °F 47% 29.92 in 1.9 mi ENE 4.6 mph - N/A   Smoke
11:10 AM 80.6 °F 80.5 °F 55.4 °F 42% 29.92 in 2.5 mi WNW 4.6 mph - N/A   Smoke
11:30 AM 80 °F - 56 °F 33% 29.90 in 1 mi NW 3.5 mph - -   Smoke
11:40 AM 80.6 °F 81.5 °F 60.8 °F 51% 29.89 in 2.5 mi WSW 10.4 mph - N/A   Smoke
12:10 PM 80.6 °F 81.8 °F 62.6 °F 54% 29.89 in 2.5 mi West 11.5 mph - N/A   Smoke
1:10 PM 80.6 °F 81.8 °F 62.6 °F 54% 29.86 in 3.1 mi West 13.8 mph - N/A   Smoke
1:40 PM 80.6 °F 81.1 °F 59.0 °F 48% 29.83 in 3.1 mi West 12.7 mph - N/A   Smoke
2:10 PM 80.6 °F 81.5 °F 60.8 °F 51% 29.83 in 3.1 mi West 8.1 mph 19.6 mph N/A   Smoke
2:30 PM 82 °F - 60 °F 36% 29.82 in 1 mi West 6.9 mph - -   Smoke
2:40 PM 80.6 °F 80.3 °F 53.6 °F 39% 29.80 in 3.1 mi WNW 8.1 mph 19.6 mph N/A   Smoke
3:10 PM 80.6 °F - 51.8 °F 37% 29.80 in 3.1 mi WNW 11.5 mph - N/A   Smoke
3:40 PM 82.4 °F - 46.4 °F 28% 29.80 in 3.1 mi WNW 15.0 mph - N/A   Smoke
4:10 PM 80.6 °F - 48.2 °F 32% 29.80 in 3.1 mi NW 11.5 mph - N/A   Smoke
4:40 PM 78.8 °F - 50.0 °F 36% 29.80 in 3.1 mi WNW 9.2 mph 20.7 mph N/A   Smoke
5:10 PM 78.8 °F - 48.2 °F 34% 29.80 in 3.1 mi NW 12.7 mph - N/A   Smoke
5:30 PM 79 °F - 48 °F 23% 29.81 in 1 mi North 9.2 mph - -   Smoke
5:40 PM 78.8 °F - 51.8 °F 39% 29.80 in 2.8 mi NW 11.5 mph - N/A   Smoke
6:10 PM 75.2 °F - 53.6 °F 47% 29.80 in 2.5 mi NW 8.1 mph 19.6 mph N/A   Smoke
6:40 PM 75.2 °F - 51.8 °F 44% 29.80 in 2.5 mi NW 11.5 mph - N/A   Smoke
7:10 PM 75.2 °F - 53.6 °F 47% 29.83 in 2.2 mi NW 9.2 mph - N/A   Smoke
7:40 PM 75.2 °F - 53.6 °F 47% 29.83 in 2.2 mi ENE 9.2 mph - N/A   Smoke
8:10 PM 75.2 °F - 53.6 °F 47% 29.83 in 1.9 mi North 5.8 mph - N/A   Smoke
8:30 PM 73 °F - 53 °F 38% 29.84 in 1 mi North 9.2 mph - -   Smoke
8:40 PM 73.4 °F - 53.6 °F 50% 29.86 in 1.9 mi NNW 9.2 mph - N/A   Smoke
9:10 PM 73.4 °F - 51.8 °F 47% 29.86 in 1.9 mi NNW 9.2 mph - N/A   Smoke
10:10 PM 73.4 °F - 51.8 °F 47% 29.89 in 1.9 mi NNE 3.5 mph - N/A   Smoke
10:40 PM 71.6 °F - 50.0 °F 46% 29.89 in 1.9 mi NNE 4.6 mph - N/A   Smoke
11:10 PM 71.6 °F - 50.0 °F 46% 29.89 in 1.9 mi North 4.6 mph - N/A   Smoke
11:30 PM 68 °F - 53 °F 48% 29.88 in 1 mi Calm Calm - -   Smoke
11:40 PM 69.8 °F - 48.2 °F 46% 29.86 in 1.9 mi Calm Calm - N/A   Smoke